{"data":{"norad_id":59254,"epoch":"2026-09-20T22:19:55.110144Z","epoch_age_seconds":121623,"freshness":"FRESH","line1":"1 59254U 24050A   26263.93049896  .00000649  00000+0  30330-4 0  9994","line2":"2 59254  53.1617 347.5414 0001050  95.8666 264.2456 15.34394097141688","mean_motion":15.34394097,"eccentricity":0.000105,"inclination_deg":53.1617,"raan_deg":347.5414,"arg_perigee_deg":95.8666,"mean_anomaly_deg":264.2456,"bstar":3.033e-5,"rev_number":14168,"period_min":93.848119125031,"perigee_km":462.00249515591,"apogee_km":463.4390752908,"semimajor_km":6840.8577852234,"source":"CELESTRAK","updated_at":"2026-09-21T09:00:34.079573Z"}}